Flag for U.S.A. Weather past 2 weeks in Tacoma, Washington, U.S.A.

Now
53 °F

Mostly cloudy.


Feels Like: 48 °F
Forecast: 47 / 53 °F
Wind: 16 mph from Southwest

Location: Tacoma Narrows Airport

Current Time: Dec 21, 2014 at 1:37:08 AM

Latest Report: Dec 21, 2014 at 12:53 AM


Visibility: 10 mi

Pressure: 29.65 "Hg

Humidity: 83%

Dew point: 48 °F

Location of TacomaLocation

Historic Weather in Tacoma — Graph

°F

Tacoma temperature yesterday

Maximum temperature yesterday: 54 °F (at 7:53 PM)
Minimum temperature yesterday: 45 °F (at 1:53 AM)
Average temperature yesterday: 49 °F

Past Weeks' High & Low Weather Summary

 TemperatureHumidityPressure
High66 °F (Dec 10, 9:53 AM)100% (Dec 8, 8:00 PM)30.24 "Hg (Dec 8, 8:00 PM)
Low39 °F (Dec 14, 6:53 AM)45% (Dec 15, 4:53 AM)29.14 "Hg (Dec 11, 3:53 PM)
Average48 °F83%29.86 "Hg
* Reported Dec 5 11:53 PM — Dec 20 11:53 PM, Tacoma, Weather by CustomWeather, © 2014

Note: Actual official high and low records may vary slightly from our data, if they occured in-between our weather recording intervals... More about our weather records

Advertising

Tacoma weather history for previous 24 hours

 ConditionsComfort  
Time TempWeatherWind HumidityBarometerVisibility
11:53 PM
Dec 20
53 °FLight rain. Mostly cloudy.16 mph89%29.58 "Hg8 mi
10:53 PM53 °FPartly cloudy.16 mph89%29.53 "Hg10 mi
9:53 PM54 °FLight rain. Mostly cloudy.16 mph93%29.52 "Hg10 mi
8:53 PM54 °FLight rain. Overcast.15 mph93%29.49 "Hg10 mi
7:53 PM54 °FLight rain. Mostly cloudy.15 mph93%29.49 "Hg8 mi
6:53 PM53 °FRain. Fog.20 mph96%29.48 "Hg5 mi
5:53 PM52 °FLight rain. Fog.24 mph93%29.48 "Hg5 mi
4:53 PM52 °FLight rain. Overcast.20 mph89%29.48 "Hg10 mi
3:53 PM50 °FLight rain. Mostly cloudy.13 mph93%29.47 "Hg7 mi
2:53 PM49 °FFog.7 mph93%29.50 "Hg6 mi
1:53 PM48 °FLight rain. Fog.6 mph93%29.53 "Hg3 mi
1:00 PM47 °FRain. Fog.8 mph93%29.54 "Hg3 mi
11:53 AM46 °FLight rain. Fog.No wind96%29.58 "Hg2 mi
10:53 AM45 °FLight rain. Fog.No wind97%29.61 "Hg1 mi
10:04 AM45 °FLight rain. Fog.3 mph93%29.62 "Hg1 mi
8:53 AM45 °FMore clouds than sun.5 mph93%29.62 "Hg10 mi
7:53 AM45 °FOvercast.No wind90%29.63 "Hg10 mi
6:53 AM46 °FLight rain. Overcast.5 mph83%29.65 "Hg10 mi
5:53 AM46 °FRain. Overcast.5 mph79%29.67 "Hg8 mi
4:53 AM47 °FLight rain. Mostly cloudy.7 mph77%29.70 "Hg10 mi
3:53 AM47 °FLight rain. Overcast.10 mph77%29.73 "Hg10 mi
2:53 AM46 °FLight rain. Overcast.5 mph79%29.77 "Hg10 mi
1:53 AM45 °FLight rain. Overcast.3 mph86%29.80 "Hg10 mi
Weather by CustomWeather, © 2014

See weather overviewHow to use our weather pages